Location: Ostrava
(49.8330°N, 18.2830°E)
Time: 18:09:22
(UTC+02:00)

Iridium 7 - Visible Passes

Search period start: 31 May 2016 00:00
Search period end: 10 June 2016 00:00
Orbit: 776 x 779 km, 86.4° (Epoch: 31 May)

Date Brightness Start Highest point End Pass type
(mag) Time Alt. Az. Time Alt. Az. Time Alt. Az.
31 May 8.4 01:48:24 10° NE 01:49:33 11° ENE 01:50:42 10° ENE visible
31 May 5.9 03:26:10 10° N 03:31:23 66° E 03:36:34 10° SSE visible
01 Jun 6.8 02:52:49 10° N 02:57:43 39° ENE 03:02:35 10° SSE visible
02 Jun 7.6 02:19:43 10° NNE 02:23:54 24° ENE 02:28:06 10° SE visible
03 Jun 8.1 01:47:05 10° NNE 01:49:59 15° ENE 01:52:51 10° E visible
03 Jun 5.6 03:26:15 10° N 03:31:31 89° E 03:36:44 10° S visible
04 Jun 6.2 02:52:47 10° N 02:57:56 53° E 03:03:01 10° SSE visible
05 Jun 7.1 02:19:31 10° NNE 02:24:12 32° ENE 02:28:51 10° SE visible
06 Jun 7.8 01:46:34 10° NNE 01:50:21 20° ENE 01:54:07 10° ESE visible
06 Jun 5.6 03:26:24 10° N 03:31:36 67° W 03:36:46 10° S visible
07 Jun 8.1 01:14:23 10° NE 01:16:21 12° ENE 01:18:19 10° E visible
07 Jun 5.7 02:52:50 10° N 02:58:05 74° E 03:03:17 10° S visible
08 Jun 6.5 02:19:26 10° N 02:24:26 43° E 02:29:24 10° SSE visible
09 Jun 7.3 01:46:16 10° NNE 01:50:40 26° ENE 01:55:02 10° SE visible
09 Jun 5.9 03:26:37 10° NNW 03:31:38 48° W 03:36:38 10° SSW visible
